Location: Earls Croome
(52.0667°N, 2.2000°W)
Time: 16:55:53
(UTC+00:00)

COSMOS 2455 - Pass Details

Date: 28 February 2020
Orbit: 901 x 909 km, 67.2° (Epoch: 04 April)

Event Time Altitude Azimuth Distance (km) Brightness Sun altitude
Exits shadow 05:31:36 - 321° (NW) 3,559 5.6 -14.1°
Rises 05:31:38 0° 321° (NW) 3,546 5.6 -14.1°
Reaches altitude 10° 05:34:09 10° 319° (NW) 2,601 4.9 -13.7°
Maximum altitude 05:40:09 68° 238° (WSW) 979 2.8 -12.8°
Drops below altitude 10° 05:46:06 10° 157° (SSE) 2,588 5.5 -11.9°
Sets 05:48:36 0° 154° (SSE) 3,526 6.3 -11.5°
